STARLINK-5303 (55630 NORAD) Tracking and Keplerian Element Data

This shows tracking and keplerian element data for the satellite.

Feedback or suggestion? Click here.




ElementValue
Catalog55630
NameSTARLINK-5303
Epoch Orbit130
Epoch Day62.91667824
Epoch Year2023
RAAN110.207
Inclination70
Eccentricity0.0003473
Argument of Perigee272.0192
Mean Anonmoly317.859
Mean Motion15.74829022
Decay Rate-0.00972528
L11 55630U 23021C 23062.91667824 -.00972528 00000+0 -73605-2 0 9990
L22 55630 70.0000 110.2070 0003473 272.0192 317.8590 15.74829022 1306



Live tracking and technical data element details for STARLINK-5303 (NORAD 55630). STARLINK-5303 can be tracked NOW for your location showing map with azimuth and elevation plus other details from your city location.







IsCatalogInMostPopularTable: catalog: 55630, numindb: 3
Update: records affected: 1



GetName: 55630 STARLINK-5303

Hit Count: updated at: Wed, 22 Mar 2023 16:53:26 GMT